Weather reports worldwide

Advertisment
St.Peter-Ording, Germany (10028): temperature & dewpoint: 12.10.2018 03:00:00 - 18.10.2018 03:00:00 (CEST)St.Peter-Ording, Germany (10028): temperature 5cm & temperature -5cm: 12.10.2018 03:00:00 - 18.10.2018 03:00:00 (CEST)St.Peter-Ording, Germany (10028): temperature -20cm & temperature -100cm: 12.10.2018 03:00:00 - 18.10.2018 03:00:00 (CEST)St.Peter-Ording, Germany (10028): wind speed & gusts: 12.10.2018 03:00:00 - 18.10.2018 03:00:00 (CEST)St.Peter-Ording, Germany (10028): wind direction: 12.10.2018 03:00:00 - 18.10.2018 03:00:00 (CEST)St.Peter-Ording, Germany (10028): reduced air pressure: 12.10.2018 03:00:00 - 18.10.2018 03:00:00 (CEST)St.Peter-Ording, Germany (10028): visibility: 12.10.2018 03:00:00 - 18.10.2018 03:00:00 (CEST)St.Peter-Ording, Germany (10028): sunshine duration: 12.10.2018 03:00:00 - 18.10.2018 03:00:00 (CEST)St.Peter-Ording, Germany (10028): precipitation: 12.10.2018 03:00:00 - 18.10.2018 03:00:00 (CEST)
Date & Time tt [°C] td [°C] tt 5cm [°C] tt -5cm [°C] tt -20cm [°C] tt -100cm [°C] ff [km/h] ff [kn] fx [km/h] fx [kn] dd ppp [hPa] vv [km] sd [min] rr [mm]
18.10.2018 03:00:00 13,6 12,8 12,9 12,5 14,1 14,5 18 10 27 14 NW 1020,9 9 0 0,0
18.10.2018 02:00:00 13,0 12,3 11,9 11,8 14,3 14,5 13 7 15 8 W 1020,9 30 0 0,0
18.10.2018 01:00:00 12,3 11,8 10,2 11,7 14,5 14,5 11 6 12 6 W 1020,7 18 0 0,0
18.10.2018 00:00:00 12,7 12,4 9,7 12,1 14,8 14,5 6 4 8 5 WSW 1020,6 6 0 0,0
17.10.2018 23:00:00 12,9 12,8 9,4 12,6 15,1 14,5 6 3 11 6 W 1020,5 5 0 0,0
17.10.2018 22:00:00 13,2 13,2 9,8 13,5 15,3 14,5 6 4 13 7 W 1020,5 3,6 0 0,0
17.10.2018 21:00:00 13,8 13,3 13,1 14,2 15,5 14,5 10 5 12 7 W 1020,1 3,9 0 0,0
17.10.2018 20:00:00 13,8 12,9 11,2 14,9 15,7 14,5 5 3 10 6 WSW 1019,9 2,6 0 0,0
17.10.2018 19:00:00 14,8 13,6 14,9 16,1 15,7 14,5 9 5 16 9 WNW 1019,5 3,0 0 0,0
17.10.2018 18:00:00 14,9 13,8 15,2 16,9 15,7 14,5 12 7 19 10 WNW 1019,1 2,6 3 0,0
17.10.2018 17:00:00 15,0 13,1 16,0 17,9 15,6 14,5 10 5 14 7 W 1018,9 3,2 10 0,0
17.10.2018 16:00:00 15,2 13,0 16,1 18,4 15,4 14,5 9 5 14 8 WSW 1018,8 3,8 0 0,0
17.10.2018 15:00:00 15,6 12,8 16,8 18,7 15,0 14,6 11 6 20 11 SW 1018,6 5 0 0,0
17.10.2018 14:00:00 15,8 12,4 17,1 19,2 14,6 14,6 16 8 23 13 SSW 1018,5 6 31 0,0
17.10.2018 13:00:00 16,8 12,6 19,4 19,2 14,1 14,6 20 11 28 15 SSW 1018,4 7 57 0,0
17.10.2018 12:00:00 16,3 12,3 16,8 15,8 13,9 14,6 19 10 29 15 S 1018,5 9 27 0,0
17.10.2018 11:00:00 16,4 12,3 16,8 15,4 13,8 14,6 22 12 35 19 S 1018,3 9 36 0,0
17.10.2018 10:00:00 14,5 12,3 13,7 13,0 13,8 14,6 18 10 27 14 SSE 1018,2 6 7 0,0
17.10.2018 09:00:00 14,5 12,3 13,4 12,5 13,9 14,6 17 9 26 14 SSE 1018,0 5 0 0,0
17.10.2018 08:00:00 14,9 12,4 13,4 12,2 14,0 14,6 16 9 28 15 S 1017,8 6 0 0,0
17.10.2018 07:00:00 14,6 12,5 13,1 12,3 14,1 14,6 17 9 26 14 SSE 1017,5 6 0 0,0
17.10.2018 06:00:00 14,7 12,7 13,5 12,6 14,2 14,6 18 10 32 17 SSE 1017,6 5 0 0,0
17.10.2018 05:00:00 14,7 12,9 13,4 12,8 14,3 14,6 16 8 26 14 SSE 1017,6 4,8 0 0,0
17.10.2018 04:00:00 15,7 13,2 14,1 13,2 14,3 14,6 18 10 27 15 S 1017,7 6 0 0,0
17.10.2018 03:00:00 15,2 13,4 13,9 13,1 14,4 14,6 19 10 30 16 S 1017,9 5 0 0,0
17.10.2018 02:00:00 15,2 13,6 13,7 12,9 14,6 14,6 17 9 30 16 S 1018,2 6 0 0,0
17.10.2018 01:00:00 15,1 13,7 13,6 13,0 14,7 14,6 18 10 27 15 SSE 1018,2 3,8 0 0,0
17.10.2018 00:00:00 15,6 14,3 14,0 13,2 14,8 14,6 18 10 29 15 SSE 1018,4 4,5 0 0,0
16.10.2018 23:00:00 15,0 14,2 14,0 13,1 15,1 14,6 16 9 25 13 SSE 1018,6 3,3 0 0,0
16.10.2018 22:00:00 12,7 12,5 11,7 12,8 15,3 14,6 13 7 17 9 SE 1018,7 2,3 0 0,0
16.10.2018 21:00:00 11,6 11,4 11,0 13,0 15,7 14,6 11 6 15 8 ESE 1019,0 1,5 0 0,0
16.10.2018 20:00:00 11,5 11,5 9,5 13,8 15,9 14,6 6 3 9 5 SE 1019,0 1,8 0 0,0
16.10.2018 19:00:00 12,5 12,5 12,6 15,4 16,1 14,6 4 2 6 3 SE 1019,0 0,1 0 0,0
16.10.2018 18:00:00 13,0 13,0 13,6 16,8 16,1 14,6 4 2 12 6 SW 1018,6 0,3 0 0,0
16.10.2018 17:00:00 13,5 13,0 14,5 18,0 16,0 14,6 9 5 21 12 WSW 1018,5 0,6 0 0,0
16.10.2018 16:00:00 15,3 13,8 16,5 19,1 15,8 14,6 15 8 20 11 SW 1018,4 3,9 5 0,0
16.10.2018 15:00:00 15,6 13,8 16,9 19,2 15,4 14,6 13 7 22 12 SSW 1018,2 5 1 0,0
16.10.2018 14:00:00 15,9 14,4 17,8 18,4 15,1 14,6 15 8 22 12 SW 1018,0 4,8 1 0,0
16.10.2018 13:00:00 15,2 13,9 16,0 16,9 14,9 14,6 16 9 22 12 SW 1018,0 3,5 0 0,0
16.10.2018 12:00:00 15,4 13,8 16,2 16,9 14,7 14,6 16 8 23 13 SW 1017,8 3,5 3 0,0
16.10.2018 11:00:00 16,4 14,5 18,7 16,2 14,5 14,6 16 8 21 12 SW 1017,5 4,0 13 0,0
16.10.2018 10:00:00 15,1 13,5 15,7 14,3 14,5 14,6 11 6 17 9 SW 1017,2 4,0 7 0,0
16.10.2018 09:00:00 14,5 13,2 14,3 13,6 14,5 14,6 11 6 18 10 SSW 1016,9 3,9 0 0,0
16.10.2018 08:00:00 14,3 13,1 14,1 13,3 14,6 14,6 12 7 20 11 SSW 1016,3 3,4 0 0,0
16.10.2018 07:00:00 14,0 12,4 13,0 13,0 14,8 14,5 13 7 19 10 SSW 1015,8 4,2 0 0,0
16.10.2018 06:00:00 14,6 12,4 13,7 13,2 14,9 14,5 14 8 20 11 SSW 1015,3 6 0 0,0
16.10.2018 05:00:00 15,2 12,1 13,8 13,7 15,0 14,5 13 7 15 8 SSW 1015,3 7 0 0,0
16.10.2018 04:00:00 15,4 12,7 15,0 14,1 15,1 14,5 11 6 15 8 SSW 1015,3 4,7 0 0,0
16.10.2018 03:00:00 14,3 12,0 13,6 13,4 15,3 14,5 9 5 17 9 SSW 1015,3 3,4 0 0,0
16.10.2018 02:00:00 12,3 11,5 9,6 12,8 15,5 14,5 9 5 11 6 S 1015,1 4,3 0 0,0
16.10.2018 01:00:00 12,3 11,4 9,6 13,2 15,9 14,5 5 3 6 3 SE 1014,8 3,4 0 0,0
16.10.2018 00:00:00 12,6 11,5 9,5 13,6 16,2 14,5 0 0 6 3 N 1014,6 3,5 0 0,0
15.10.2018 23:00:00 14,1 12,3 11,0 14,7 16,4 14,5 5 3 14 8 WSW 1014,3 6 0 0,0
15.10.2018 22:00:00 15,0 11,0 13,9 15,5 16,7 14,5 10 6 14 7 SSW 1014,1 7 0 0,0
15.10.2018 21:00:00 17,2 12,2 15,7 16,3 16,9 14,5 10 5 15 8 S 1013,7 13 0 0,0
15.10.2018 20:00:00 17,9 12,2 16,6 16,3 17,2 14,5 13 7 19 10 S 1013,6 14 0 0,0
15.10.2018 19:00:00 16,9 11,9 13,8 17,1 17,5 14,5 12 7 16 9 S 1013,3 15 14 0,0
15.10.2018 18:00:00 18,5 11,6 17,6 19,6 17,5 14,5 9 5 16 9 S 1012,8 15 60 0,0
15.10.2018 17:00:00 19,5 12,2 20,2 21,7 17,2 14,5 11 6 21 11 S 1012,5 13 60 0,0
15.10.2018 16:00:00 19,7 12,3 21,7 23,3 16,8 14,5 13 7 23 12 S 1012,2 14 60 0,0
15.10.2018 15:00:00 19,7 12,3 21,9 23,7 16,2 14,5 16 8 27 15 S 1012,1 12 60 0,0
15.10.2018 14:00:00 19,0 12,2 21,5 23,1 15,5 14,5 16 9 28 15 S 1012,3 9 60 0,0
15.10.2018 13:00:00 17,9 11,2 20,3 21,4 14,9 14,5 16 9 29 15 S 1012,4 9 60 0,0
15.10.2018 12:00:00 17,1 11,1 18,7 19,0 14,5 14,5 16 9 27 15 S 1012,2 8 60 0,0
15.10.2018 11:00:00 17,1 11,0 18,7 16,5 14,2 14,5 15 8 26 14 S 1012,1 14 60 0,0
15.10.2018 10:00:00 15,4 10,8 16,1 13,7 14,2 14,5 14 7 24 13 SSE 1011,9 11 60 0,0
15.10.2018 09:00:00 14,3 10,2 13,6 12,1 14,4 14,4 16 9 27 14 SSE 1011,6 16 36 0,0
15.10.2018 08:00:00 14,2 10,2 12,9 11,9 14,6 14,4 16 8 26 14 SE 1011,1 12 0 0,0
15.10.2018 07:00:00 14,2 10,5 12,5 12,2 14,8 14,4 15 8 23 13 SE 1010,9 12 0 0,0
15.10.2018 06:00:00 14,5 10,7 13,0 12,6 15,0 14,4 17 9 26 14 SSE 1010,6 13 0 0,0
15.10.2018 05:00:00 15,0 11,0 13,5 12,9 15,3 14,4 17 9 29 15 SSE 1010,5 13 0 0,0
15.10.2018 04:00:00 15,3 11,0 13,8 13,2 15,5 14,4 19 10 29 16 SSE 1010,4 15 0 0,0
15.10.2018 03:00:00 15,4 11,0 14,0 13,5 15,7 14,4 19 10 32 17 SSE 1010,3 15 0 0,0
15.10.2018 02:00:00 15,7 11,0 14,2 13,9 16,0 14,4 20 11 34 18 SSE 1010,3 17 0 0,0
15.10.2018 01:00:00 16,3 11,1 15,0 14,4 16,2 14,4 20 11 38 20 SSE 1010,2 18 0 0,0
15.10.2018 00:00:00 17,3 11,1 16,1 14,9 16,5 14,4 23 13 40 21 SSE 1010,0 21 0 0,0
14.10.2018 23:00:00 17,7 11,3 16,4 15,4 16,7 14,3 22 12 40 22 SSE 1009,9 23 0 0,0
14.10.2018 22:00:00 18,6 11,5 17,2 15,9 17,0 14,3 24 13 40 22 SSE 1009,6 27 0 0,0
14.10.2018 21:00:00 18,8 11,9 17,4 16,4 17,3 14,3 22 12 40 21 SSE 1009,6 25 0 0,0
14.10.2018 20:00:00 19,6 11,8 18,1 17,0 17,5 14,3 24 13 47 26 SSE 1009,1 26 0 0,0
14.10.2018 19:00:00 19,8 12,0 18,4 18,0 17,8 14,3 24 13 37 20 SSE 1009,0 29 7 0,0
14.10.2018 18:00:00 20,5 11,8 19,9 20,0 17,8 14,3 21 11 36 19 SE 1008,5 25 60 0,0
14.10.2018 17:00:00 20,9 12,1 21,9 22,6 17,6 14,3 22 12 36 20 SSE 1008,5 15 60 0,0
14.10.2018 16:00:00 21,1 12,1 22,9 24,0 17,1 14,3 21 12 37 20 SE 1008,7 9 60 0,0
14.10.2018 15:00:00 20,1 12,3 22,2 24,4 16,5 14,3 22 12 42 23 SE 1008,9 7 60 0,0
14.10.2018 14:00:00 19,3 11,6 22,1 23,8 15,8 14,3 22 12 39 21 SE 1009,6 7 60 0,0
14.10.2018 13:00:00 19,4 11,2 21,7 22,1 15,1 14,3 19 10 36 19 SSE 1010,3 13 60 0,0
14.10.2018 12:00:00 18,1 10,2 19,8 19,4 14,7 14,2 20 11 36 19 SE 1010,4 12 60 0,0
14.10.2018 11:00:00 16,9 9,5 18,6 16,6 14,5 14,2 21 11 37 20 SSE 1011,1 11 60 0,0
14.10.2018 10:00:00 15,7 9,2 16,3 13,9 14,6 14,2 21 12 36 19 SE 1011,4 13 60 0,0
14.10.2018 09:00:00 14,4 9,0 13,9 12,3 14,8 14,2 19 10 34 19 SE 1011,6 15 42 0,0
14.10.2018 08:00:00 14,1 9,1 12,6 12,2 15,1 14,2 20 11 30 16 SE 1011,5 16 0 0,0
14.10.2018 07:00:00 14,7 9,2 13,1 12,8 15,3 14,2 19 10 33 18 SE 1011,9 17 0 0,0
14.10.2018 06:00:00 15,7 9,5 13,9 13,3 15,6 14,1 19 10 34 19 SE 1012,5 18 0 0,0
14.10.2018 05:00:00 16,9 9,6 15,2 13,8 15,8 14,1 21 11 36 20 SE 1013,0 22 0 0,0
14.10.2018 04:00:00 17,7 9,8 16,3 14,3 16,0 14,1 24 13 39 21 SE 1013,8 26 0 0,0
14.10.2018 03:00:00 18,0 10,0 16,5 14,7 16,2 14,1 23 12 41 22 SE 1014,2 32 0 0,0
14.10.2018 02:00:00 18,7 9,9 17,2 15,2 16,5 14,1 25 13 43 23 SE 1014,7 36 0 0,0
14.10.2018 01:00:00 19,2 10,2 17,6 15,6 16,7 14,1 22 12 41 22 SE 1014,9 44 0 0,0
14.10.2018 00:00:00 19,6 10,7 18,1 16,1 16,9 14,0 25 13 40 21 SE 1015,2 47 0 0,0
13.10.2018 23:00:00 20,6 11,1 18,9 16,6 17,2 14,0 23 13 39 21 SE 1015,4 57 0 0,0
13.10.2018 22:00:00 21,3 11,7 19,5 17,1 17,4 14,0 22 12 39 21 SE 1015,5 66 0 0,0
13.10.2018 21:00:00 21,9 12,2 20,0 17,6 17,7 14,0 21 11 38 20 SE 1015,9 69 0 0,0
13.10.2018 20:00:00 22,0 13,1 20,3 18,1 18,0 14,0 18 10 29 15 SE 1016,4 70 0 0,0
13.10.2018 19:00:00 21,8 13,7 20,1 19,2 18,3 14,0 16 9 32 17 SE 1016,6 67 10 0,0
13.10.2018 18:00:00 22,1 13,8 21,3 21,5 18,3 14,0 18 10 32 17 SSE 1016,7 54 58 0,0
13.10.2018 17:00:00 23,2 14,2 24,3 24,3 18,0 14,0 17 9 31 17 SSE 1017,1 22 60 0,0
13.10.2018 16:00:00 23,5 14,6 25,3 25,8 17,4 14,0 19 10 32 18 SSE 1017,8 16 60 0,0
13.10.2018 15:00:00 22,8 14,9 25,5 26,0 16,7 14,0 19 11 36 19 SSE 1018,4 10 60 0,0
13.10.2018 14:00:00 22,2 14,7 24,6 25,7 15,9 14,0 21 11 38 20 SSE 1019,0 17 60 0,0
13.10.2018 13:00:00 21,5 14,4 24,2 23,8 15,1 14,0 22 12 35 19 S 1019,5 11 60 0,0
13.10.2018 12:00:00 20,6 14,0 22,6 21,4 14,5 14,0 19 10 36 20 SSE 1019,6 9 60 0,0
13.10.2018 11:00:00 19,0 13,2 20,8 18,1 14,2 13,9 22 12 39 21 SSE 1019,7 12 60 0,0
13.10.2018 10:00:00 17,3 12,9 17,4 14,7 14,1 13,9 22 12 41 22 SSE 1019,7 39 43 0,0
13.10.2018 09:00:00 16,5 12,8 15,6 13,5 14,1 13,9 23 13 39 21 SSE 1019,6 27 16 0,0
13.10.2018 08:00:00 16,3 12,8 15,2 13,3 14,2 13,9 22 12 39 21 SSE 1019,5 25 0 0,0
13.10.2018 07:00:00 16,3 13,0 15,1 13,4 14,3 13,9 23 12 37 20 SSE 1019,6 22 0 0,0
13.10.2018 06:00:00 16,4 13,0 15,2 13,5 14,4 13,9 23 13 38 20 S 1019,8 22 0 0,0
13.10.2018 05:00:00 16,3 13,0 15,1 13,7 14,6 13,9 22 12 36 20 SSE 1019,8 20 0 0,0
13.10.2018 04:00:00 17,1 13,1 15,8 13,8 14,7 13,9 24 13 38 21 SSE 1019,7 26 0 0,0
13.10.2018 03:00:00 16,7 12,9 15,5 13,9 14,8 13,9 22 12 41 22 SSE 1019,4 26 0 0,0
13.10.2018 02:00:00 16,8 12,9 15,7 14,1 15,0 13,8 22 12 40 22 SSE 1019,4 26 0 0,0
13.10.2018 01:00:00 17,4 12,9 16,4 14,5 15,1 13,8 26 14 42 23 S 1019,5 30 0 0,0
13.10.2018 00:00:00 18,1 12,9 16,7 14,7 15,2 13,8 24 13 40 21 SSE 1019,4 37 0 0,0
12.10.2018 23:00:00 19,3 13,3 17,9 14,9 15,4 13,8 22 12 37 20 SSE 1019,7 44 0 0,0
12.10.2018 22:00:00 18,9 13,4 17,5 15,0 15,6 13,8 23 12 36 19 SSE 1019,7 42 0 0,0
12.10.2018 21:00:00 18,7 13,4 17,2 15,2 15,8 13,8 21 11 34 19 SSE 1019,6 41 0 0,0
12.10.2018 20:00:00 18,7 13,7 17,2 15,6 16,1 13,8 19 10 29 16 SSE 1019,6 46 0 0,0
12.10.2018 19:00:00 17,8 13,3 16,3 16,5 16,3 13,8 16 9 36 20 SSE 1019,5 38 0 0,0
12.10.2018 18:00:00 19,0 13,3 18,2 18,3 16,3 13,8 20 11 32 17 S 1019,5 46 47 0,0
12.10.2018 17:00:00 19,3 12,8 19,9 20,7 16,1 13,8 18 10 29 16 S 1019,5 22 60 0,0
12.10.2018 16:00:00 19,3 12,7 20,2 21,9 15,6 13,8 16 8 32 18 S 1019,5 21 60 0,0
12.10.2018 15:00:00 19,4 13,1 21,1 22,5 15,0 13,8 22 12 39 21 S 1019,1 11 58 0,0
12.10.2018 14:00:00 19,0 13,5 20,8 22,0 14,3 13,8 23 12 36 19 S 1018,8 10 60 0,0
12.10.2018 13:00:00 17,8 12,9 19,9 20,5 13,7 13,8 23 12 37 20 S 1019,0 10 60 0,0
12.10.2018 12:00:00 17,0 12,4 18,6 18,2 13,1 13,8 23 12 36 20 SSW 1018,7 9 60 0,0
12.10.2018 11:00:00 16,0 11,9 17,4 15,8 12,8 13,8 24 13 38 21 S 1018,3 12 60 0,0
12.10.2018 10:00:00 15,6 11,7 16,1 13,4 12,7 13,8 23 12 34 19 S 1017,6 10 60 0,0
12.10.2018 09:00:00 14,5 11,1 14,0 11,6 12,7 13,8 20 11 36 19 S 1016,5 12 43 0,0
12.10.2018 08:00:00 14,0 10,2 12,9 11,1 12,8 13,8 21 12 35 19 SSE 1015,6 13 0 0,0
12.10.2018 07:00:00 14,2 10,0 13,0 11,2 13,0 13,8 21 11 34 18 SSE 1015,1 12 0 0,0
12.10.2018 06:00:00 14,7 9,8 13,3 11,4 13,1 13,8 21 12 33 18 SSE 1014,5 15 0 0,0
12.10.2018 05:00:00 14,5 9,9 13,2 11,4 13,2 13,8 20 11 32 18 SSE 1014,4 14 0 0,0
12.10.2018 04:00:00 14,9 9,6 13,3 11,6 13,4 13,7 21 11 35 19 SSE 1014,4 16 0 0,0
12.10.2018 03:00:00 16,1 9,1 14,4 11,8 13,5 13,7 20 11 31 17 SE 1014,3 19 0 0,0

tt = temperature
td = dewpoint
tt 5cm = temperature 5cm
tt -5cm = temperature -5cm
tt -20cm = temperature -20cm
tt -100cm = temperature -100cm
ff = wind speed
fx = gusts
dd = wind direction
ppp = reduced air pressure
vv = visibility
sd = sunshine duration
rr = precipitation

Next stations